CXA8994 VVTS-ZSAM

Flight info

Callsign CXA8994
Flight time 2h 38m
Altitude 33000
Route PATMA5B PATMA W12 PCA G221 ASUKU/K0872F350 G221 BUNTA A1 IKELA/N0447F270 A1 MAGOG A470 DOTMI/K0861S1070 A470 TEBON TEBON8X
Aircraft B738/M-SDE2E3FGHIRWXY/LB1

Departure

Time 2026-05-04 12:41
Airport Tan Son Nhat International Airport (VVTS)

Arrival

Time 2026-05-04 15:19
Airport Xiamen Gaoqi International Airport (ZSAM)
Time Latitude Longitude Altitude Speed Heading
2026-05-04 12:18 10.81488 106.65885 36 ft 0 kts 96°
2026-05-04 12:24 10.81489 106.65881 36 ft 3 kts 96°
2026-05-04 12:24 10.81491 106.65854 36 ft 4 kts 94°
2026-05-04 12:24 10.81493 106.65830 36 ft 3 kts 93°
2026-05-04 12:25 10.81490 106.65805 35 ft 4 kts 55°
2026-05-04 12:25 10.81470 106.65789 35 ft 4 kts 17°
2026-05-04 12:25 10.81446 106.65784 36 ft 1 kts
2026-05-04 12:25 10.81445 106.65784 36 ft 0 kts
2026-05-04 12:31 10.81453 106.65785 36 ft 3 kts
2026-05-04 12:31 10.81483 106.65788 36 ft 6 kts
2026-05-04 12:32 10.81536 106.65792 36 ft 9 kts
2026-05-04 12:32 10.81650 106.65820 36 ft 7 kts 48°
2026-05-04 12:32 10.81670 106.65868 35 ft 7 kts 69°
2026-05-04 12:33 10.81688 106.65915 36 ft 7 kts 69°
2026-05-04 12:33 10.81705 106.65961 34 ft 7 kts 69°
2026-05-04 12:33 10.81722 106.66006 36 ft 7 kts 69°
2026-05-04 12:33 10.81739 106.66051 35 ft 7 kts 69°
2026-05-04 12:34 10.81758 106.66103 35 ft 9 kts 69°
2026-05-04 12:34 10.81785 106.66172 35 ft 12 kts 68°
2026-05-04 12:34 10.81815 106.66250 35 ft 12 kts 69°
2026-05-04 12:34 10.81843 106.66327 36 ft 11 kts 69°
2026-05-04 12:35 10.81872 106.66402 36 ft 11 kts 69°
2026-05-04 12:35 10.81899 106.66474 36 ft 11 kts 69°
2026-05-04 12:35 10.81927 106.66547 34 ft 12 kts 69°
2026-05-04 12:35 10.81959 106.66635 36 ft 15 kts 68°
2026-05-04 12:36 10.81995 106.66728 34 ft 14 kts 69°
2026-05-04 12:36 10.82029 106.66817 35 ft 12 kts 69°
2026-05-04 12:36 10.82066 106.66888 34 ft 11 kts 49°
2026-05-04 12:36 10.82129 106.66943 32 ft 12 kts 39°
2026-05-04 12:37 10.82186 106.66991 33 ft 7 kts 39°
2026-05-04 12:37 10.82223 106.67012 35 ft 6 kts 12°
2026-05-04 12:37 10.82265 106.67005 34 ft 6 kts 339°
2026-05-04 12:37 10.82304 106.66989 34 ft 6 kts 332°
2026-05-04 12:38 10.82331 106.66957 33 ft 6 kts 290°
2026-05-04 12:38 10.82338 106.66915 33 ft 6 kts 278°
2026-05-04 12:38 10.82338 106.66874 33 ft 6 kts 258°
2026-05-04 12:38 10.82329 106.66844 33 ft 1 kts 249°
2026-05-04 12:39 10.82327 106.66840 33 ft 0 kts 249°
2026-05-04 12:39 10.82327 106.66839 33 ft 0 kts 249°
2026-05-04 12:40 10.82308 106.66788 31 ft 37 kts 249°
2026-05-04 12:41 10.82104 106.66260 34 ft 121 kts 248°
2026-05-04 12:41 10.81705 106.65240 133 ft 182 kts 248°
2026-05-04 12:41 10.81217 106.63898 537 ft 221 kts 248°
2026-05-04 12:41 10.80636 106.62322 852 ft 255 kts 247°
2026-05-04 12:42 10.79963 106.60558 1387 ft 275 kts 246°
2026-05-04 12:42 10.79270 106.58737 2282 ft 273 kts 246°
2026-05-04 12:42 10.78607 106.57026 3463 ft 251 kts 243°
2026-05-04 12:42 10.77535 106.55679 3843 ft 240 kts 209°
2026-05-04 12:43 10.75999 106.55124 3984 ft 233 kts 182°
2026-05-04 12:43 10.74413 106.55244 3997 ft 227 kts 162°
2026-05-04 12:43 10.73122 106.55831 4000 ft 220 kts 143°
2026-05-04 12:43 10.71907 106.56759 4009 ft 221 kts 140°
2026-05-04 12:44 10.70688 106.57720 4020 ft 223 kts 140°
2026-05-04 12:44 10.69468 106.58680 4439 ft 222 kts 139°
2026-05-04 12:44 10.68255 106.59634 5013 ft 224 kts 139°
2026-05-04 12:44 10.67012 106.60607 5562 ft 227 kts 139°
2026-05-04 12:45 10.65745 106.61597 6105 ft 230 kts 139°
2026-05-04 12:45 10.64589 106.62718 6619 ft 229 kts 118°
2026-05-04 12:45 10.64172 106.64264 7026 ft 234 kts 87°
2026-05-04 12:45 10.64534 106.65923 7259 ft 247 kts 70°
2026-05-04 12:46 10.65159 106.67572 7701 ft 252 kts 68°
2026-05-04 12:46 10.65812 106.69237 8179 ft 255 kts 68°
2026-05-04 12:46 10.66474 106.70944 8521 ft 267 kts 68°
2026-05-04 12:46 10.67171 106.72754 8800 ft 282 kts 68°
2026-05-04 12:47 10.67885 106.74631 9456 ft 285 kts 68°
2026-05-04 12:47 10.68598 106.76514 10186 ft 288 kts 68°
2026-05-04 12:47 10.69341 106.78481 10410 ft 310 kts 68°
2026-05-04 12:47 10.70139 106.80596 10590 ft 331 kts 69°
2026-05-04 12:48 10.70975 106.82813 10768 ft 348 kts 69°
2026-05-04 12:48 10.72009 106.85055 10863 ft 356 kts 55°
2026-05-04 12:48 10.73560 106.87035 11447 ft 358 kts 51°
2026-05-04 12:48 10.75148 106.88994 12117 ft 360 kts 51°
2026-05-04 12:49 10.76740 106.90972 12721 ft 363 kts 51°
2026-05-04 12:49 10.78334 106.92976 13282 ft 367 kts 51°
2026-05-04 12:49 10.79942 106.95011 13777 ft 372 kts 52°
2026-05-04 12:49 10.81568 106.97076 14312 ft 375 kts 52°
2026-05-04 12:50 10.83202 106.99158 14872 ft 378 kts 52°
2026-05-04 12:50 10.84849 107.01258 15396 ft 381 kts 52°
2026-05-04 12:50 10.86511 107.03378 15893 ft 385 kts 52°
2026-05-04 12:50 10.88188 107.05515 16387 ft 388 kts 52°
2026-05-04 12:51 10.89994 107.07574 16826 ft 393 kts 40°
2026-05-04 12:51 10.92301 107.09088 17302 ft 397 kts 31°
2026-05-04 12:51 10.94703 107.10489 17775 ft 400 kts 31°
2026-05-04 12:51 10.97120 107.11924 18200 ft 404 kts 32°
2026-05-04 12:52 10.99539 107.13394 18622 ft 407 kts 32°
2026-05-04 12:52 11.01970 107.14887 19044 ft 410 kts 32°
2026-05-04 12:52 11.04419 107.16397 19452 ft 413 kts 32°
2026-05-04 12:52 11.06852 107.17897 19845 ft 416 kts 32°
2026-05-04 12:53 11.09363 107.19444 20241 ft 418 kts 32°
2026-05-04 12:53 11.11824 107.20960 20602 ft 421 kts 32°
2026-05-04 12:53 11.14349 107.22515 20977 ft 424 kts 32°
2026-05-04 12:53 11.16884 107.24058 21333 ft 427 kts 30°
2026-05-04 12:54 11.19513 107.25457 21671 ft 430 kts 27°
2026-05-04 12:54 11.22232 107.26765 21999 ft 432 kts 25°
2026-05-04 12:54 11.24977 107.28048 22321 ft 435 kts 25°
2026-05-04 12:54 11.27733 107.29343 22610 ft 437 kts 25°
2026-05-04 12:55 11.30505 107.30652 22900 ft 440 kts 26°
2026-05-04 12:55 11.33283 107.31978 23222 ft 441 kts 26°
2026-05-04 12:55 11.36071 107.33322 23504 ft 444 kts 26°
2026-05-04 12:55 11.38832 107.34655 23770 ft 446 kts 26°
2026-05-04 12:56 11.41649 107.36030 24083 ft 448 kts 26°
2026-05-04 12:56 11.44462 107.37405 24373 ft 450 kts 26°
2026-05-04 12:56 11.47293 107.38785 24619 ft 452 kts 26°
2026-05-04 12:56 11.50124 107.40164 24867 ft 454 kts 26°
2026-05-04 12:57 11.52982 107.41558 25130 ft 456 kts 26°
2026-05-04 12:57 11.55845 107.42954 25382 ft 457 kts 26°
2026-05-04 12:57 11.58723 107.44357 25621 ft 459 kts 26°
2026-05-04 12:57 11.61611 107.45765 25857 ft 461 kts 26°
2026-05-04 12:58 11.64508 107.47178 26098 ft 462 kts 26°
2026-05-04 12:58 11.67420 107.48599 26357 ft 463 kts 26°
2026-05-04 12:58 11.70327 107.50019 26579 ft 465 kts 26°
2026-05-04 12:58 11.73255 107.51448 26789 ft 466 kts 26°
2026-05-04 12:59 11.76187 107.52881 26990 ft 468 kts 26°
2026-05-04 12:59 11.79138 107.54322 27188 ft 470 kts 26°
2026-05-04 12:59 11.82095 107.55768 27386 ft 472 kts 26°
2026-05-04 12:59 11.85058 107.57216 27592 ft 473 kts 26°
2026-05-04 13:00 11.88026 107.58668 27781 ft 474 kts 26°
2026-05-04 13:00 11.91012 107.60128 27972 ft 476 kts 26°
2026-05-04 13:00 11.93999 107.61590 28156 ft 477 kts 26°
2026-05-04 13:00 11.97001 107.63058 28353 ft 479 kts 26°
2026-05-04 13:01 12.00006 107.64528 28533 ft 480 kts 26°
2026-05-04 13:01 12.03027 107.66008 28712 ft 481 kts 26°
2026-05-04 13:01 12.06053 107.67490 28855 ft 482 kts 26°
2026-05-04 13:01 12.09040 107.68953 29009 ft 484 kts 26°
2026-05-04 13:02 12.12079 107.70441 29175 ft 485 kts 26°
2026-05-04 13:02 12.15124 107.71934 29353 ft 486 kts 26°
2026-05-04 13:02 12.18190 107.73437 29499 ft 487 kts 26°
2026-05-04 13:02 12.21257 107.74942 29665 ft 488 kts 26°
2026-05-04 13:03 12.24316 107.76444 29828 ft 489 kts 26°
2026-05-04 13:03 12.27387 107.77949 30055 ft 488 kts 26°
2026-05-04 13:03 12.30441 107.79447 30302 ft 487 kts 26°
2026-05-04 13:03 12.33479 107.81000 30546 ft 486 kts 31°
2026-05-04 13:04 12.36145 107.83116 30746 ft 485 kts 43°
2026-05-04 13:04 12.38589 107.85479 30992 ft 484 kts 44°
2026-05-04 13:04 12.41018 107.87867 31182 ft 484 kts 44°
2026-05-04 13:04 12.43425 107.90217 31351 ft 485 kts 43°
2026-05-04 13:05 12.45875 107.92579 31558 ft 484 kts 43°
2026-05-04 13:05 12.48338 107.94926 31813 ft 483 kts 43°
2026-05-04 13:05 12.50807 107.97264 32075 ft 482 kts 43°
2026-05-04 13:05 12.53269 107.99590 32298 ft 482 kts 42°
2026-05-04 13:06 12.55733 108.01918 32482 ft 482 kts 42°
2026-05-04 13:06 12.58199 108.04248 32702 ft 482 kts 42°
2026-05-04 13:06 12.60658 108.06574 32945 ft 481 kts 42°
2026-05-04 13:06 12.63111 108.08898 33192 ft 480 kts 42°
2026-05-04 13:07 12.65554 108.11211 33403 ft 480 kts 42°
2026-05-04 13:07 12.68087 108.13439 33636 ft 479 kts 36°
2026-05-04 13:07 12.70787 108.15431 33851 ft 478 kts 33°
2026-05-04 13:07 12.73539 108.17345 34069 ft 478 kts 32°
2026-05-04 13:08 12.76298 108.19233 34301 ft 477 kts 32°
2026-05-04 13:08 12.79055 108.21128 34545 ft 476 kts 33°
2026-05-04 13:08 12.81797 108.23033 34761 ft 476 kts 33°
2026-05-04 13:08 12.84533 108.24955 34943 ft 477 kts 33°
2026-05-04 13:09 12.87264 108.26888 35123 ft 477 kts 33°
2026-05-04 13:09 12.89988 108.28825 35332 ft 476 kts 33°
2026-05-04 13:09 12.92710 108.30763 35531 ft 476 kts 33°
2026-05-04 13:09 12.95428 108.32699 35719 ft 476 kts 33°
2026-05-04 13:10 12.98148 108.34637 35893 ft 476 kts 33°
2026-05-04 13:10 13.00869 108.36575 36089 ft 476 kts 33°
2026-05-04 13:10 13.03587 108.38510 36265 ft 476 kts 33°
2026-05-04 13:10 13.06307 108.40446 36389 ft 477 kts 33°
2026-05-04 13:11 13.09032 108.42387 36525 ft 478 kts 33°
2026-05-04 13:11 13.11764 108.44333 36730 ft 477 kts 33°
2026-05-04 13:11 13.14475 108.46265 36977 ft 475 kts 33°
2026-05-04 13:12 13.19911 108.50142 36956 ft 474 kts 33°
2026-05-04 13:12 13.25271 108.53967 36941 ft 465 kts 33°
2026-05-04 13:13 13.30588 108.57762 36950 ft 465 kts 33°
2026-05-04 13:13 13.35869 108.61527 36961 ft 466 kts 33°
2026-05-04 13:14 13.41207 108.65328 36965 ft 467 kts 33°
2026-05-04 13:14 13.46550 108.69138 36957 ft 468 kts 33°
2026-05-04 13:15 13.51911 108.72963 36958 ft 469 kts 33°
2026-05-04 13:15 13.57282 108.76798 36948 ft 470 kts 33°
2026-05-04 13:16 13.62658 108.80639 36956 ft 470 kts 33°
2026-05-04 13:16 13.68035 108.84485 36953 ft 471 kts 33°
2026-05-04 13:17 13.73414 108.88332 36959 ft 471 kts 33°
2026-05-04 13:17 13.78788 108.92178 36967 ft 470 kts 33°
2026-05-04 13:18 13.84133 108.96006 36973 ft 471 kts 33°
2026-05-04 13:18 13.89507 108.99858 36968 ft 470 kts 33°
2026-05-04 13:19 13.95057 109.03358 36964 ft 465 kts 20°
2026-05-04 13:19 14.01238 109.05104 36968 ft 459 kts
2026-05-04 13:20 14.07585 109.05835 36972 ft 458 kts
2026-05-04 13:20 14.13924 109.06535 36974 ft 459 kts
2026-05-04 13:21 14.20271 109.07274 36973 ft 458 kts
2026-05-04 13:21 14.26622 109.08039 36969 ft 459 kts
2026-05-04 13:22 14.32962 109.08810 36977 ft 459 kts
2026-05-04 13:22 14.39267 109.09576 36970 ft 459 kts
2026-05-04 13:23 14.45617 109.10348 36981 ft 459 kts
2026-05-04 13:23 14.51976 109.11118 36981 ft 460 kts
2026-05-04 13:24 14.58340 109.11893 36982 ft 460 kts
2026-05-04 13:24 14.64717 109.12670 36984 ft 461 kts
2026-05-04 13:25 14.74290 109.13835 36982 ft 462 kts
2026-05-04 13:25 14.79601 109.14482 36982 ft 463 kts
2026-05-04 13:26 14.85999 109.15259 36983 ft 463 kts
2026-05-04 13:26 14.92398 109.16040 36981 ft 463 kts
2026-05-04 13:27 14.98791 109.16820 36979 ft 463 kts
2026-05-04 13:27 15.05197 109.17603 36982 ft 463 kts
2026-05-04 13:28 15.11560 109.18381 36980 ft 463 kts
2026-05-04 13:28 15.17962 109.19164 36983 ft 463 kts
2026-05-04 13:29 15.24356 109.19947 36984 ft 462 kts
2026-05-04 13:29 15.30742 109.20725 36994 ft 462 kts
2026-05-04 13:30 15.37135 109.21508 36992 ft 462 kts
2026-05-04 13:30 15.43520 109.22292 36990 ft 462 kts
2026-05-04 13:31 15.49914 109.23077 36991 ft 463 kts
2026-05-04 13:31 15.56307 109.23860 36993 ft 462 kts
2026-05-04 13:32 15.62704 109.24644 36991 ft 463 kts
2026-05-04 13:32 15.69061 109.25423 36990 ft 463 kts
2026-05-04 13:33 15.75471 109.26208 36991 ft 463 kts
2026-05-04 13:33 15.81871 109.26993 36992 ft 463 kts
2026-05-04 13:34 15.88279 109.27780 36991 ft 463 kts
2026-05-04 13:34 15.94692 109.28567 36992 ft 464 kts
2026-05-04 13:35 16.04267 109.29743 36990 ft 464 kts
2026-05-04 13:36 16.10685 109.30533 36990 ft 464 kts
2026-05-04 13:36 16.17105 109.31324 36993 ft 464 kts
2026-05-04 13:37 16.23526 109.32113 36991 ft 464 kts
2026-05-04 13:37 16.29950 109.32905 36992 ft 465 kts
2026-05-04 13:38 16.36378 109.33697 36990 ft 465 kts
2026-05-04 13:38 16.42804 109.34490 36992 ft 465 kts
2026-05-04 13:39 16.49192 109.35279 36990 ft 465 kts
2026-05-04 13:39 16.55627 109.36074 36990 ft 466 kts
2026-05-04 13:40 16.62064 109.36870 36990 ft 465 kts
2026-05-04 13:40 16.68493 109.37666 36991 ft 465 kts
2026-05-04 13:41 16.74929 109.38463 36992 ft 465 kts
2026-05-04 13:41 16.81296 109.39648 36982 ft 471 kts 21°
2026-05-04 13:42 16.86401 109.43919 36998 ft 480 kts 54°
2026-05-04 13:42 16.88225 109.46783 37019 ft 480 kts 55°
2026-05-04 13:42 16.91884 109.52634 37002 ft 481 kts 55°
2026-05-04 13:43 16.95592 109.58469 36997 ft 482 kts 54°
2026-05-04 13:43 16.99338 109.64281 36997 ft 483 kts 54°
2026-05-04 13:44 17.03101 109.70101 37002 ft 484 kts 54°
2026-05-04 13:44 17.06871 109.75940 37000 ft 485 kts 54°
2026-05-04 13:45 17.10643 109.81786 37001 ft 485 kts 54°
2026-05-04 13:45 17.14414 109.87642 36998 ft 486 kts 54°
2026-05-04 13:46 17.18165 109.93471 37001 ft 486 kts 54°
2026-05-04 13:46 17.21943 109.99345 37000 ft 486 kts 54°
2026-05-04 13:47 17.25714 110.05215 37001 ft 486 kts 54°
2026-05-04 13:47 17.29491 110.11098 37000 ft 486 kts 54°
2026-05-04 13:48 17.33255 110.16966 36999 ft 485 kts 54°
2026-05-04 13:48 17.37018 110.22839 37000 ft 485 kts 54°
2026-05-04 13:49 17.40771 110.28702 37000 ft 485 kts 54°
2026-05-04 13:49 17.44517 110.34516 37001 ft 484 kts 54°
2026-05-04 13:50 17.48309 110.40340 36998 ft 484 kts 54°
2026-05-04 13:50 17.52103 110.46169 37000 ft 484 kts 54°
2026-05-04 13:51 17.55886 110.52000 37001 ft 484 kts 54°
2026-05-04 13:51 17.59667 110.57839 37002 ft 484 kts 54°
2026-05-04 13:52 17.65334 110.66598 37003 ft 484 kts 54°
2026-05-04 13:53 17.69110 110.72441 37002 ft 484 kts 54°
2026-05-04 13:53 17.72889 110.78292 36999 ft 484 kts 54°
2026-05-04 13:54 17.78535 110.87047 37001 ft 485 kts 54°
2026-05-04 13:55 17.84206 110.95852 36999 ft 486 kts 54°
2026-05-04 13:55 17.89886 111.04682 36999 ft 486 kts 54°
2026-05-04 13:56 17.93664 111.10560 37000 ft 486 kts 54°
2026-05-04 13:57 17.99326 111.19384 37000 ft 485 kts 54°
2026-05-04 13:58 18.06865 111.31148 37003 ft 485 kts 54°
2026-05-04 13:58 18.12491 111.39940 36997 ft 485 kts 54°
2026-05-04 13:59 18.16264 111.45842 37006 ft 486 kts 54°
2026-05-04 14:00 18.21918 111.54701 37020 ft 486 kts 54°
2026-05-04 14:00 18.27579 111.63583 37018 ft 487 kts 54°
2026-05-04 14:01 18.31332 111.69475 37019 ft 488 kts 54°
2026-05-04 14:02 18.36997 111.78382 37006 ft 487 kts 54°
2026-05-04 14:02 18.40765 111.84314 37012 ft 487 kts 54°
2026-05-04 14:03 18.44534 111.90251 37008 ft 487 kts 54°
2026-05-04 14:03 18.48295 111.96181 37008 ft 486 kts 54°
2026-05-04 14:04 18.53901 112.05033 37008 ft 486 kts 54°
2026-05-04 14:04 18.57649 112.10959 37010 ft 485 kts 54°
2026-05-04 14:05 18.63268 112.19849 37012 ft 485 kts 54°
2026-05-04 14:06 18.67455 112.25369 37012 ft 481 kts 40°
2026-05-04 14:06 18.72755 112.29595 37022 ft 477 kts 31°
2026-05-04 14:07 18.78183 112.33562 37020 ft 478 kts 32°
2026-05-04 14:07 18.83621 112.37616 37020 ft 479 kts 32°
2026-05-04 14:08 18.89049 112.41715 37029 ft 480 kts 32°
2026-05-04 14:08 18.94492 112.45834 37018 ft 481 kts 32°
2026-05-04 14:09 19.02918 112.51514 37024 ft 475 kts 20°
2026-05-04 14:10 19.12037 112.55667 37020 ft 476 kts 19°
2026-05-04 14:10 19.18085 112.58419 37018 ft 476 kts 20°
2026-05-04 14:11 19.24158 112.61230 37017 ft 476 kts 20°
2026-05-04 14:11 19.33263 112.65477 37016 ft 476 kts 20°
2026-05-04 14:12 19.39321 112.68306 37020 ft 476 kts 20°
2026-05-04 14:13 19.48379 112.72542 37017 ft 476 kts 20°
2026-05-04 14:13 19.54434 112.75375 37019 ft 475 kts 20°
2026-05-04 14:14 19.60486 112.78207 37017 ft 475 kts 20°
2026-05-04 14:14 19.69563 112.82460 37019 ft 475 kts 20°
2026-05-04 14:15 19.81655 112.88137 37016 ft 475 kts 20°
2026-05-04 14:16 19.90685 112.92378 37027 ft 475 kts 20°
2026-05-04 14:17 19.99761 112.96647 37027 ft 475 kts 20°
2026-05-04 14:18 20.07825 113.00447 37030 ft 476 kts 19°
2026-05-04 14:19 20.19965 113.06174 37034 ft 477 kts 19°
2026-05-04 14:19 20.26038 113.09043 37035 ft 478 kts 19°
2026-05-04 14:20 20.32083 113.11901 37040 ft 479 kts 19°
2026-05-04 14:20 20.38181 113.14786 37032 ft 479 kts 19°
2026-05-04 14:21 20.47329 113.19120 37037 ft 480 kts 19°
2026-05-04 14:21 20.53427 113.22011 37032 ft 479 kts 19°
2026-05-04 14:22 20.59524 113.24905 37036 ft 480 kts 19°
2026-05-04 14:22 20.65620 113.27801 37033 ft 479 kts 19°
2026-05-04 14:23 20.74723 113.32131 37044 ft 479 kts 19°
2026-05-04 14:24 20.80816 113.35034 37048 ft 480 kts 19°
2026-05-04 14:24 20.86921 113.37943 37044 ft 480 kts 19°
2026-05-04 14:25 20.93021 113.40853 37048 ft 480 kts 19°
2026-05-04 14:25 21.02170 113.45219 37047 ft 480 kts 19°
2026-05-04 14:26 21.08277 113.48138 37047 ft 480 kts 19°
2026-05-04 14:26 21.14379 113.51059 37047 ft 480 kts 19°
2026-05-04 14:27 21.20481 113.53981 37046 ft 480 kts 19°
2026-05-04 14:27 21.26587 113.56908 37045 ft 481 kts 19°
2026-05-04 14:28 21.32709 113.59842 37046 ft 482 kts 19°
2026-05-04 14:28 21.38835 113.62785 37048 ft 482 kts 19°
2026-05-04 14:29 21.51088 113.68678 37048 ft 483 kts 18°
2026-05-04 14:30 21.57227 113.71634 37048 ft 483 kts 18°
2026-05-04 14:31 21.66407 113.76060 37048 ft 484 kts 18°
2026-05-04 14:32 21.78703 113.81998 37047 ft 484 kts 18°
2026-05-04 14:32 21.84859 113.84974 37048 ft 484 kts 18°
2026-05-04 14:33 21.90982 113.87939 37046 ft 485 kts 18°
2026-05-04 14:33 21.97131 113.90919 37094 ft 485 kts 18°
2026-05-04 14:34 22.03302 113.93912 37147 ft 485 kts 18°
2026-05-04 14:34 22.09448 113.96898 37153 ft 483 kts 18°
2026-05-04 14:35 22.15567 113.99874 37155 ft 482 kts 19°
2026-05-04 14:35 22.18420 114.01827 37134 ft 494 kts 39°
2026-05-04 14:35 22.20625 114.04694 37167 ft 502 kts 57°
2026-05-04 14:35 22.22068 114.08086 37156 ft 506 kts 73°
2026-05-04 14:36 22.22633 114.11820 37167 ft 505 kts 87°
2026-05-04 14:36 22.22941 114.19412 37152 ft 507 kts 89°
2026-05-04 14:37 22.23173 114.27022 37155 ft 508 kts 88°
2026-05-04 14:37 22.23474 114.34649 37164 ft 509 kts 88°
2026-05-04 14:38 22.23820 114.42299 37171 ft 510 kts 88°
2026-05-04 14:38 22.24174 114.49964 37174 ft 512 kts 88°
2026-05-04 14:39 22.24522 114.57650 37171 ft 514 kts 88°
2026-05-04 14:39 22.24864 114.65361 37169 ft 515 kts 88°
2026-05-04 14:40 22.25368 114.76921 37175 ft 516 kts 88°
2026-05-04 14:40 22.25702 114.84663 37175 ft 516 kts 88°
2026-05-04 14:41 22.26031 114.92398 37167 ft 515 kts 88°
2026-05-04 14:42 22.26675 115.07804 37179 ft 512 kts 88°
2026-05-04 14:42 22.26993 115.15492 37164 ft 511 kts 88°
2026-05-04 14:43 22.27305 115.23149 37174 ft 510 kts 88°
2026-05-04 14:43 22.27612 115.30793 37173 ft 508 kts 89°
2026-05-04 14:44 22.27914 115.38364 37169 ft 508 kts 89°
2026-05-04 14:44 22.28214 115.45975 37177 ft 507 kts 89°
2026-05-04 14:45 22.28509 115.53593 37179 ft 506 kts 89°
2026-05-04 14:45 22.28801 115.61200 37177 ft 506 kts 89°
2026-05-04 14:46 22.29089 115.68789 37176 ft 506 kts 89°
2026-05-04 14:46 22.29382 115.76383 37170 ft 504 kts 86°
2026-05-04 14:47 22.30065 115.80024 37164 ft 502 kts 67°
2026-05-04 14:47 22.31659 115.83359 37191 ft 499 kts 52°
2026-05-04 14:47 22.33913 115.86168 37192 ft 494 kts 37°
2026-05-04 14:47 22.36616 115.88462 37198 ft 495 kts 32°
2026-05-04 14:48 22.42221 115.92851 37178 ft 499 kts 31°
2026-05-04 14:48 22.47838 115.97291 37175 ft 501 kts 32°
2026-05-04 14:49 22.53435 116.01823 37183 ft 502 kts 32°
2026-05-04 14:49 22.58987 116.06351 37184 ft 502 kts 32°
2026-05-04 14:50 22.64553 116.10890 37194 ft 501 kts 32°
2026-05-04 14:50 22.70125 116.15431 37186 ft 500 kts 32°
2026-05-04 14:51 22.75653 116.19975 37182 ft 498 kts 33°
2026-05-04 14:51 22.81158 116.24563 37113 ft 499 kts 33°
2026-05-04 14:52 22.83917 116.26861 36837 ft 501 kts 33°
2026-05-04 14:52 22.86678 116.29161 36588 ft 499 kts 33°
2026-05-04 14:52 22.89395 116.31426 36346 ft 498 kts 33°
2026-05-04 14:52 22.92153 116.33724 36098 ft 500 kts 33°
2026-05-04 14:53 22.94927 116.36034 35852 ft 506 kts 33°
2026-05-04 14:53 22.97732 116.38363 35447 ft 508 kts 32°
2026-05-04 14:53 23.00547 116.40686 34758 ft 509 kts 32°
2026-05-04 14:53 23.03362 116.43007 34104 ft 509 kts 32°
2026-05-04 14:54 23.06185 116.45333 33396 ft 510 kts 33°
2026-05-04 14:54 23.09015 116.47669 32682 ft 512 kts 33°
2026-05-04 14:54 23.11863 116.50022 31905 ft 514 kts 33°
2026-05-04 14:54 23.14711 116.52378 31135 ft 515 kts 34°
2026-05-04 14:55 23.17564 116.54741 30318 ft 518 kts 34°
2026-05-04 14:55 23.20425 116.57111 29720 ft 515 kts 34°
2026-05-04 14:55 23.23264 116.59468 29140 ft 511 kts 34°
2026-05-04 14:55 23.26086 116.61810 28556 ft 507 kts 34°
2026-05-04 14:56 23.28879 116.64129 27975 ft 504 kts 34°
2026-05-04 14:56 23.31652 116.66432 27392 ft 500 kts 34°
2026-05-04 14:56 23.34410 116.68723 26808 ft 496 kts 34°
2026-05-04 14:56 23.37150 116.71000 26233 ft 492 kts 33°
2026-05-04 14:57 23.39854 116.73248 25662 ft 488 kts 33°
2026-05-04 14:57 23.42543 116.75487 25090 ft 484 kts 33°
2026-05-04 14:57 23.45115 116.77798 24804 ft 480 kts 40°
2026-05-04 14:57 23.47489 116.80388 24744 ft 479 kts 43°
2026-05-04 14:58 23.49723 116.82972 24690 ft 460 kts 43°
2026-05-04 14:58 23.51836 116.85452 24681 ft 444 kts 43°
2026-05-04 14:58 23.53909 116.87872 24682 ft 429 kts 43°
2026-05-04 14:58 23.55276 116.89453 24680 ft 419 kts 42°
2026-05-04 14:59 23.57879 116.92436 24680 ft 401 kts 42°
2026-05-04 14:59 23.59784 116.94603 24469 ft 392 kts 41°
2026-05-04 14:59 23.63673 116.98999 22153 ft 418 kts 42°
2026-05-04 15:00 23.65724 117.01323 20846 ft 431 kts 43°
2026-05-04 15:00 23.67826 117.03711 19614 ft 440 kts 43°
2026-05-04 15:00 23.69940 117.06119 18683 ft 438 kts 44°
2026-05-04 15:01 23.74089 117.10855 17520 ft 426 kts 43°
2026-05-04 15:01 23.76135 117.13181 16991 ft 424 kts 43°
2026-05-04 15:01 23.78236 117.15413 16523 ft 419 kts 40°
2026-05-04 15:01 23.80384 117.17530 16044 ft 415 kts 38°
2026-05-04 15:02 23.82544 117.19603 15538 ft 411 kts 38°
2026-05-04 15:02 23.84689 117.21648 15035 ft 407 kts 38°
2026-05-04 15:02 23.86784 117.23661 14522 ft 404 kts 38°
2026-05-04 15:02 23.88902 117.25665 14121 ft 398 kts 39°
2026-05-04 15:03 23.91105 117.27579 13115 ft 408 kts 44°
2026-05-04 15:03 23.92998 117.29825 12909 ft 396 kts 43°
2026-05-04 15:03 23.94985 117.31875 12498 ft 389 kts 39°
2026-05-04 15:03 23.97017 117.33812 12033 ft 386 kts 38°
2026-05-04 15:04 23.99039 117.35720 11574 ft 383 kts 40°
2026-05-04 15:04 24.00908 117.37783 11028 ft 383 kts 47°
2026-05-04 15:04 24.02560 117.40012 10828 ft 369 kts 51°
2026-05-04 15:04 24.03568 117.41472 10661 ft 356 kts 52°
2026-05-04 15:05 24.05016 117.43578 10529 ft 336 kts 51°
2026-05-04 15:05 24.06404 117.45557 10390 ft 319 kts 51°
2026-05-04 15:05 24.07736 117.47431 10278 ft 304 kts 50°
2026-05-04 15:05 24.09018 117.49226 10181 ft 297 kts 50°
2026-05-04 15:06 24.10284 117.50999 10099 ft 294 kts 50°
2026-05-04 15:06 24.11536 117.52756 10038 ft 294 kts 50°
2026-05-04 15:06 24.12811 117.54543 9813 ft 301 kts 50°
2026-05-04 15:07 24.15373 117.58138 9222 ft 298 kts 51°
2026-05-04 15:07 24.16644 117.59921 8934 ft 296 kts 51°
2026-05-04 15:07 24.17911 117.61698 8647 ft 296 kts 51°
2026-05-04 15:07 24.19161 117.63452 8360 ft 297 kts 51°
2026-05-04 15:08 24.20426 117.65223 8078 ft 294 kts 51°
2026-05-04 15:08 24.21681 117.66981 7800 ft 291 kts 51°
2026-05-04 15:08 24.22928 117.68723 7535 ft 290 kts 51°
2026-05-04 15:08 24.24171 117.70466 7236 ft 289 kts 51°
2026-05-04 15:09 24.25400 117.72193 6964 ft 286 kts 51°
2026-05-04 15:09 24.26620 117.73901 6705 ft 283 kts 50°
2026-05-04 15:09 24.27828 117.75589 6440 ft 280 kts 50°
2026-05-04 15:10 24.30200 117.78914 5989 ft 273 kts 51°
2026-05-04 15:10 24.31364 117.80544 5845 ft 266 kts 51°
2026-05-04 15:10 24.33533 117.83578 5712 ft 237 kts 50°
2026-05-04 15:11 24.34523 117.84966 5413 ft 231 kts 50°
2026-05-04 15:11 24.35509 117.86349 5059 ft 225 kts 50°
2026-05-04 15:11 24.36445 117.87660 4838 ft 210 kts 50°
2026-05-04 15:11 24.37313 117.88874 4630 ft 194 kts 50°
2026-05-04 15:12 24.38115 117.89996 4481 ft 181 kts 50°
2026-05-04 15:12 24.38864 117.91042 4303 ft 168 kts 50°
2026-05-04 15:12 24.39581 117.92045 4156 ft 165 kts 50°
2026-05-04 15:12 24.40272 117.93011 3975 ft 156 kts 50°
2026-05-04 15:13 24.40905 117.93896 3862 ft 142 kts 50°
2026-05-04 15:13 24.41484 117.94707 3703 ft 129 kts 50°
2026-05-04 15:13 24.42024 117.95460 3539 ft 121 kts 50°
2026-05-04 15:13 24.42538 117.96179 3418 ft 119 kts 50°
2026-05-04 15:14 24.43055 117.96900 3288 ft 120 kts 49°
2026-05-04 15:14 24.43568 117.97617 3159 ft 120 kts 50°
2026-05-04 15:14 24.44083 117.98336 3021 ft 118 kts 49°
2026-05-04 15:14 24.44581 117.99032 2872 ft 115 kts 49°
2026-05-04 15:15 24.45082 117.99732 2752 ft 118 kts 50°
2026-05-04 15:15 24.45599 118.00454 2642 ft 123 kts 50°
2026-05-04 15:15 24.46129 118.01194 2490 ft 122 kts 51°
2026-05-04 15:16 24.47170 118.02649 2166 ft 123 kts 51°
2026-05-04 15:16 24.47704 118.03394 2008 ft 125 kts 51°
2026-05-04 15:16 24.48784 118.04903 1676 ft 125 kts 51°
2026-05-04 15:17 24.49327 118.05661 1507 ft 127 kts 51°
2026-05-04 15:17 24.50435 118.07208 1164 ft 130 kts 52°
2026-05-04 15:17 24.50995 118.07989 986 ft 129 kts 51°
2026-05-04 15:18 24.51549 118.08762 820 ft 129 kts 52°
2026-05-04 15:18 24.52106 118.09540 652 ft 130 kts 51°
2026-05-04 15:18 24.52663 118.10318 474 ft 129 kts 52°
2026-05-04 15:19 24.53775 118.11877 132 ft 131 kts 53°
2026-05-04 15:19 24.54331 118.12661 51 ft 131 kts 52°
2026-05-04 15:19 24.54712 118.13252 50 ft 0 kts 83°
2026-05-04 15:20 24.54713 118.13265 50 ft 5 kts 85°
2026-05-04 15:20 24.54718 118.13327 50 ft 11 kts 86°
2026-05-04 15:20 24.54689 118.13397 49 ft 11 kts 152°
2026-05-04 15:20 24.54630 118.13364 47 ft 11 kts 234°
2026-05-04 15:21 24.54577 118.13287 50 ft 14 kts 232°
2026-05-04 15:21 24.54511 118.13193 50 ft 16 kts 232°
2026-05-04 15:21 24.54379 118.13008 52 ft 15 kts 232°
2026-05-04 15:22 24.54317 118.12922 50 ft 14 kts 232°
2026-05-04 15:22 24.54252 118.12832 52 ft 16 kts 232°
2026-05-04 15:22 24.54106 118.12626 50 ft 18 kts 232°
2026-05-04 15:23 24.54025 118.12514 53 ft 19 kts 231°
2026-05-04 15:23 24.53946 118.12404 54 ft 18 kts 232°
2026-05-04 15:23 24.53868 118.12293 55 ft 19 kts 232°
2026-05-04 15:23 24.53788 118.12183 56 ft 18 kts 231°
2026-05-04 15:24 24.53668 118.12018 56 ft 7 kts 219°
2026-05-04 15:24 24.53608 118.12017 55 ft 5 kts 147°
2026-05-04 15:25 24.53578 118.12038 58 ft 5 kts 154°
2026-05-04 15:25 24.53561 118.12045 61 ft 2 kts 165°
2026-05-04 15:25 24.53540 118.12047 59 ft 3 kts 177°
2026-05-04 15:26 24.53516 118.12048 54 ft 2 kts 179°
2026-05-04 15:26 24.53510 118.12048 61 ft 1 kts 180°
2026-05-04 15:26 24.53507 118.12048 61 ft 0 kts 180°